Wetterdaten: Samstag, 14.04.2018
Datum Zeit Temp. A. Aussen2m Boden Feuchte A. Feuchte 2 Luftdruck Regen Wind Richtung Richtung Sonnenschein
14.04.2018 00:00 12,0 C 12,0 C 12,4 C 85 % 85 % 1010,7 hPa 0,0 l/m 0,0 km/h (0 Bft) W-SW 255 0 min
14.04.2018 00:05 11,9 C 12,0 C 12,4 C 86 % 85 % 1010,7 hPa 0,0 l/m 0,0 km/h (0 Bft) S-SW 210 0 min
14.04.2018 00:10 11,9 C 11,9 C 12,4 C 86 % 85 % 1010,7 hPa 0,0 l/m 0,0 km/h (0 Bft) SW 235 0 min
14.04.2018 00:15 11,9 C 11,9 C 12,4 C 86 % 85 % 1010,7 hPa 0,0 l/m 0,0 km/h (0 Bft) S-SW 205 0 min
14.04.2018 00:20 12,0 C 11,8 C 12,3 C 86 % 85 % 1010,7 hPa 0,0 l/m 0,6 km/h (0 Bft) S-SW 195 0 min
14.04.2018 00:25 12,1 C 11,8 C 12,3 C 86 % 85 % 1010,7 hPa 0,0 l/m 0,0 km/h (0 Bft) S 190 0 min
14.04.2018 00:30 12,1 C 11,7 C 12,3 C 85 % 85 % 1011,8 hPa 0,0 l/m 0,6 km/h (0 Bft) S 190 0 min
14.04.2018 00:35 12,1 C 11,8 C 12,1 C 85 % 86 % 1011,8 hPa 0,0 l/m 1,2 km/h (1 Bft) SW 215 0 min
14.04.2018 00:40 12,0 C 11,8 C 12,1 C 86 % 86 % 1011,8 hPa 0,0 l/m 0,6 km/h (0 Bft) S-SW 210 0 min
14.04.2018 00:45 12,0 C 11,8 C 12,1 C 86 % 86 % 1011,8 hPa 0,0 l/m 0,6 km/h (0 Bft) SW 220 0 min
14.04.2018 00:50 12,0 C 11,8 C 12,1 C 86 % 86 % 1011,8 hPa 0,0 l/m 1,8 km/h (1 Bft) SW 225 0 min
14.04.2018 00:55 12,0 C 11,8 C 12,0 C 86 % 86 % 1011,8 hPa 0,0 l/m 2,4 km/h (1 Bft) S-SW 200 0 min
14.04.2018 01:00 12,0 C 11,9 C 12,0 C 85 % 86 % 1011,8 hPa 0,0 l/m 1,8 km/h (1 Bft) SW 235 0 min
14.04.2018 01:05 11,9 C 11,9 C 12,0 C 85 % 86 % 1011,8 hPa 0,0 l/m 1,8 km/h (1 Bft) W-SW 240 0 min
14.04.2018 01:10 11,8 C 11,8 C 12,0 C 86 % 85 % 1011,8 hPa 0,0 l/m 2,4 km/h (1 Bft) W 270 0 min
14.04.2018 01:15 11,5 C 11,7 C 11,8 C 86 % 85 % 1011,8 hPa 0,0 l/m 0,0 km/h (0 Bft) SW 220 0 min
14.04.2018 01:20 11,4 C 11,6 C 11,8 C 87 % 86 % 1011,8 hPa 0,0 l/m 1,8 km/h (1 Bft) SW 225 0 min
14.04.2018 01:25 11,4 C 11,6 C 11,8 C 87 % 86 % 1011,8 hPa 0,0 l/m 1,2 km/h (1 Bft) W-SW 250 0 min
14.04.2018 01:30 11,4 C 11,5 C 11,7 C 87 % 86 % 1010,8 hPa 0,0 l/m 1,2 km/h (1 Bft) W-SW 255 0 min
14.04.2018 01:35 11,4 C 11,5 C 11,7 C 87 % 86 % 1010,8 hPa 0,0 l/m 0,0 km/h (0 Bft) W-SW 255 0 min
14.04.2018 01:40 11,3 C 11,5 C 11,7 C 87 % 86 % 1010,8 hPa 0,0 l/m 1,2 km/h (1 Bft) W-SW 250 0 min
14.04.2018 01:45 11,3 C 11,4 C 11,5 C 87 % 86 % 1010,8 hPa 0,0 l/m 0,6 km/h (0 Bft) SW 235 0 min
14.04.2018 01:50 11,2 C 11,4 C 11,5 C 87 % 86 % 1010,8 hPa 0,0 l/m 0,0 km/h (0 Bft) W-NW 290 0 min
14.04.2018 01:55 11,2 C 11,2 C 11,4 C 87 % 86 % 1010,8 hPa 0,0 l/m 0,0 km/h (0 Bft) W 275 0 min
14.04.2018 02:00 11,1 C 11,2 C 11,4 C 88 % 86 % 1011,8 hPa 0,0 l/m 0,0 km/h (0 Bft) W-NW 285 0 min
14.04.2018 02:05 11,0 C 11,0 C 11,4 C 88 % 86 % 1011,8 hPa 0,0 l/m 0,0 km/h (0 Bft) W 265 0 min
14.04.2018 02:10 11,0 C 10,9 C 11,2 C 88 % 86 % 1011,8 hPa 0,0 l/m 0,0 km/h (0 Bft) W-SW 255 0 min
14.04.2018 02:15 11,0 C 10,8 C 11,2 C 88 % 86 % 1011,8 hPa 0,0 l/m 0,6 km/h (0 Bft) NW 315 0 min
14.04.2018 02:20 11,0 C 10,8 C 11,2 C 88 % 87 % 1011,8 hPa 0,0 l/m 0,0 km/h (0 Bft) W-NW 295 0 min
14.04.2018 02:25 11,0 C 10,8 C 11,2 C 88 % 87 % 1011,8 hPa 0,0 l/m 0,0 km/h (0 Bft) SO 140 0 min
14.04.2018 02:30 11,0 C 10,7 C 11,2 C 88 % 87 % 1011,8 hPa 0,0 l/m 0,0 km/h (0 Bft) S-SW 195 0 min
14.04.2018 02:35 10,9 C 10,8 C 11,2 C 88 % 87 % 1011,8 hPa 0,0 l/m 0,0 km/h (0 Bft) NW 315 0 min
14.04.2018 02:40 11,0 C 10,7 C 11,2 C 88 % 87 % 1011,8 hPa 0,0 l/m 0,0 km/h (0 Bft) NW 310 0 min
14.04.2018 02:45 11,0 C 10,7 C 11,2 C 89 % 88 % 1012,8 hPa 0,0 l/m 0,0 km/h (0 Bft) S 190 0 min
14.04.2018 02:50 11,0 C 10,6 C 11,2 C 89 % 88 % 1012,8 hPa 0,0 l/m 0,0 km/h (0 Bft) S 170 0 min
14.04.2018 02:55 11,1 C 10,7 C 11,2 C 88 % 88 % 1012,8 hPa 0,0 l/m 0,0 km/h (0 Bft) S 180 0 min
14.04.2018 03:00 11,2 C 10,7 C 11,2 C 88 % 88 % 1011,8 hPa 0,0 l/m 0,0 km/h (0 Bft) S 185 0 min
14.04.2018 03:05 11,2 C 10,8 C 11,4 C 88 % 88 % 1011,8 hPa 0,0 l/m 0,0 km/h (0 Bft) NW 305 0 min
14.04.2018 03:10 11,2 C 10,9 C 11,4 C 88 % 89 % 1011,8 hPa 0,0 l/m 0,0 km/h (0 Bft) NW 325 0 min
14.04.2018 03:15 11,1 C 10,9 C 11,4 C 88 % 89 % 1012,8 hPa 0,0 l/m 1,2 km/h (1 Bft) N-NO 20 0 min
14.04.2018 03:20 11,1 C 11,0 C 11,4 C 88 % 89 % 1012,8 hPa 0,0 l/m 4,2 km/h (1 Bft) NO 40 0 min
14.04.2018 03:25 11,0 C 11,0 C 11,4 C 89 % 89 % 1012,8 hPa 0,0 l/m 4,8 km/h (1 Bft) N-NO 25 0 min
14.04.2018 03:30 11,0 C 11,0 C 11,4 C 89 % 88 % 1011,8 hPa 0,0 l/m 4,8 km/h (1 Bft) N 5 0 min
14.04.2018 03:35 11,1 C 11,1 C 11,4 C 89 % 88 % 1011,8 hPa 0,0 l/m 4,8 km/h (1 Bft) N 350 0 min
14.04.2018 03:40 11,1 C 11,1 C 11,2 C 88 % 88 % 1011,8 hPa 0,0 l/m 4,2 km/h (1 Bft) N 10 0 min
14.04.2018 03:45 11,1 C 11,1 C 11,2 C 88 % 88 % 1012,8 hPa 0,0 l/m 4,8 km/h (1 Bft) N 355 0 min
14.04.2018 03:50 11,0 C 11,1 C 11,2 C 89 % 88 % 1012,8 hPa 0,0 l/m 3,6 km/h (1 Bft) NO 45 0 min
14.04.2018 03:55 11,0 C 11,0 C 11,2 C 89 % 88 % 1012,8 hPa 0,0 l/m 1,8 km/h (1 Bft) N-NO 25 0 min
14.04.2018 04:00 10,9 C 11,0 C 11,2 C 89 % 88 % 1012,8 hPa 0,0 l/m 1,2 km/h (1 Bft) O 95 0 min
14.04.2018 04:05 10,9 C 11,0 C 11,2 C 89 % 88 % 1012,8 hPa 0,0 l/m 1,8 km/h (1 Bft) N-NO 20 0 min
14.04.2018 04:10 10,9 C 11,0 C 11,2 C 89 % 88 % 1012,8 hPa 0,0 l/m 1,2 km/h (1 Bft) N 5 0 min
14.04.2018 04:15 10,9 C 11,0 C 11,2 C 89 % 88 % 1011,8 hPa 0,0 l/m 3,0 km/h (1 Bft) N-NO 20 0 min
14.04.2018 04:20 10,9 C 11,0 C 11,2 C 89 % 88 % 1011,8 hPa 0,0 l/m 1,8 km/h (1 Bft) N 0 0 min
14.04.2018 04:25 10,8 C 11,0 C 11,2 C 89 % 88 % 1011,8 hPa 0,0 l/m 1,8 km/h (1 Bft) N 350 0 min
14.04.2018 04:30 10,8 C 11,0 C 11,2 C 90 % 88 % 1012,8 hPa 0,0 l/m 1,2 km/h (1 Bft) N-NO 30 0 min
14.04.2018 04:35 10,8 C 11,0 C 11,2 C 90 % 88 % 1012,8 hPa 0,0 l/m 1,2 km/h (1 Bft) N 355 0 min
14.04.2018 04:40 10,8 C 11,0 C 11,2 C 90 % 88 % 1012,8 hPa 0,0 l/m 0,0 km/h (0 Bft) W 270 0 min
14.04.2018 04:45 10,8 C 11,0 C 11,2 C 90 % 88 % 1012,8 hPa 0,0 l/m 0,0 km/h (0 Bft) NW 325 0 min
14.04.2018 04:50 10,7 C 10,9 C 11,2 C 90 % 88 % 1012,8 hPa 0,0 l/m 0,0 km/h (0 Bft) NW 325 0 min
14.04.2018 04:55 10,7 C 10,9 C 11,2 C 90 % 89 % 1012,8 hPa 0,0 l/m 4,8 km/h (1 Bft) N 5 0 min
14.04.2018 05:00 10,7 C 10,9 C 11,2 C 90 % 89 % 1012,8 hPa 0,0 l/m 0,6 km/h (0 Bft) NW 305 0 min
14.04.2018 05:05 10,6 C 10,8 C 11,1 C 90 % 89 % 1012,8 hPa 0,0 l/m 0,6 km/h (0 Bft) NW 305 0 min
14.04.2018 05:10 10,5 C 10,8 C 11,1 C 90 % 89 % 1012,8 hPa 0,0 l/m 2,4 km/h (1 Bft) N 10 0 min
14.04.2018 05:15 10,4 C 10,7 C 11,1 C 91 % 89 % 1013,8 hPa 0,0 l/m 6,1 km/h (2 Bft) N-NO 30 0 min
14.04.2018 05:20 10,4 C 10,7 C 10,8 C 91 % 89 % 1013,8 hPa 0,0 l/m 2,4 km/h (1 Bft) W 280 0 min
14.04.2018 05:25 10,4 C 10,6 C 10,8 C 91 % 89 % 1013,8 hPa 0,0 l/m 1,8 km/h (1 Bft) W-NW 295 0 min
14.04.2018 05:30 10,3 C 10,6 C 10,8 C 91 % 89 % 1012,8 hPa 0,0 l/m 0,0 km/h (0 Bft) NW 320 0 min
14.04.2018 05:35 10,2 C 10,5 C 10,8 C 91 % 89 % 1012,8 hPa 0,0 l/m 0,0 km/h (0 Bft) N-NO 15 0 min
14.04.2018 05:40 10,2 C 10,4 C 10,7 C 91 % 89 % 1012,8 hPa 0,0 l/m 1,2 km/h (1 Bft) N-NO 15 0 min
14.04.2018 05:45 10,2 C 10,4 C 10,7 C 91 % 89 % 1012,8 hPa 0,0 l/m 1,2 km/h (1 Bft) N-NO 15 0 min
14.04.2018 05:50 10,2 C 10,4 C 10,5 C 91 % 90 % 1012,8 hPa 0,0 l/m 0,0 km/h (0 Bft) W-NW 295 0 min
14.04.2018 05:55 10,1 C 10,4 C 10,5 C 91 % 90 % 1012,8 hPa 0,0 l/m 0,0 km/h (0 Bft) W-NW 295 0 min
14.04.2018 06:00 10,2 C 10,3 C 10,5 C 92 % 90 % 1012,8 hPa 0,0 l/m 1,2 km/h (1 Bft) N-NO 15 0 min
14.04.2018 06:05 10,2 C 10,3 C 10,5 C 92 % 90 % 1012,8 hPa 0,0 l/m 1,2 km/h (1 Bft) N-NO 15 0 min
14.04.2018 06:10 10,2 C 10,3 C 10,5 C 92 % 90 % 1012,8 hPa 0,0 l/m 0,6 km/h (0 Bft) NW 310 0 min
14.04.2018 06:15 10,2 C 10,2 C 10,7 C 92 % 90 % 1012,8 hPa 0,0 l/m 0,6 km/h (0 Bft) NW 310 0 min
14.04.2018 06:20 10,2 C 10,2 C 10,7 C 92 % 90 % 1012,8 hPa 0,0 l/m 0,6 km/h (0 Bft) NW 310 0 min
14.04.2018 06:25 10,2 C 10,2 C 10,7 C 92 % 90 % 1012,8 hPa 0,0 l/m 0,6 km/h (0 Bft) NW 310 0 min
14.04.2018 06:30 10,2 C 10,2 C 10,8 C 92 % 90 % 1013,8 hPa 0,0 l/m 0,6 km/h (0 Bft) NW 310 0 min
14.04.2018 06:35 10,2 C 10,3 C 10,8 C 92 % 90 % 1013,8 hPa 0,0 l/m 0,6 km/h (0 Bft) NW 310 0 min
14.04.2018 06:40 10,2 C 10,3 C 10,8 C 92 % 90 % 1013,8 hPa 0,0 l/m 0,6 km/h (0 Bft) NW 310 0 min
14.04.2018 06:45 10,2 C 10,4 C 10,8 C 92 % 90 % 1012,8 hPa 0,0 l/m 0,6 km/h (0 Bft) NW 310 0 min
14.04.2018 06:50 10,2 C 10,4 C 10,8 C 92 % 90 % 1012,8 hPa 0,0 l/m 0,6 km/h (0 Bft) NW 310 0 min
14.04.2018 06:55 10,2 C 10,4 C 10,8 C 92 % 90 % 1012,8 hPa 0,0 l/m 0,6 km/h (0 Bft) NW 310 0 min
14.04.2018 07:00 10,2 C 10,3 C 10,8 C 92 % 90 % 1012,8 hPa 0,0 l/m 0,6 km/h (0 Bft) NW 310 0 min
14.04.2018 07:05 10,2 C 10,4 C 10,8 C 91 % 90 % 1012,8 hPa 0,0 l/m 0,0 km/h (0 Bft) W-NW 295 0 min
14.04.2018 07:10 10,2 C 10,4 C 10,8 C 91 % 90 % 1012,8 hPa 0,0 l/m 0,0 km/h (0 Bft) W-NW 295 0 min
14.04.2018 07:15 10,2 C 10,3 C 10,8 C 91 % 90 % 1014,8 hPa 0,0 l/m 0,0 km/h (0 Bft) W-NW 295 0 min
14.04.2018 07:20 10,2 C 10,3 C 10,8 C 91 % 89 % 1014,8 hPa 0,0 l/m 0,0 km/h (0 Bft) W-NW 295 0 min
14.04.2018 07:25 10,2 C 10,2 C 10,8 C 91 % 88 % 1014,8 hPa 0,0 l/m 0,0 km/h (0 Bft) W-NW 295 0 min
14.04.2018 07:30 10,2 C 10,2 C 10,8 C 91 % 88 % 1014,8 hPa 0,0 l/m 0,0 km/h (0 Bft) W-NW 295 0 min
14.04.2018 07:35 10,2 C 10,2 C 10,8 C 91 % 88 % 1014,8 hPa 0,0 l/m 0,0 km/h (0 Bft) W-NW 295 0 min
14.04.2018 07:40 10,2 C 10,2 C 10,8 C 91 % 87 % 1014,8 hPa 0,0 l/m 0,0 km/h (0 Bft) W-NW 295 0 min
14.04.2018 07:45 10,2 C 10,2 C 10,8 C 91 % 87 % 1014,8 hPa 0,0 l/m 0,0 km/h (0 Bft) W-NW 295 0 min
14.04.2018 07:50 10,2 C 10,3 C 10,8 C 91 % 87 % 1014,8 hPa 0,0 l/m 0,0 km/h (0 Bft) W-NW 295 0 min
14.04.2018 07:55 10,2 C 10,3 C 10,8 C 91 % 87 % 1014,8 hPa 0,0 l/m 0,0 km/h (0 Bft) W-NW 295 0 min
14.04.2018 08:00 10,2 C 10,4 C 10,8 C 91 % 86 % 1013,8 hPa 0,0 l/m 0,0 km/h (0 Bft) W-NW 295 0 min
14.04.2018 08:05 10,2 C 10,4 C 10,8 C 91 % 86 % 1013,8 hPa 0,0 l/m 0,0 km/h (0 Bft) W-NW 295 0 min
14.04.2018 08:10 10,2 C 10,5 C 10,8 C 91 % 85 % 1013,8 hPa 0,0 l/m 0,0 km/h (0 Bft) W-NW 295 0 min
14.04.2018 08:15 10,2 C 10,5 C 10,8 C 91 % 85 % 1013,8 hPa 0,0 l/m 0,0 km/h (0 Bft) W-NW 295 0 min
14.04.2018 08:20 10,2 C 10,6 C 10,8 C 91 % 83 % 1013,8 hPa 0,0 l/m 0,0 km/h (0 Bft) W-NW 295 0 min
14.04.2018 08:25 10,2 C 10,7 C 10,8 C 91 % 83 % 1013,8 hPa 0,0 l/m 0,0 km/h (0 Bft) W-NW 295 0 min
14.04.2018 08:30 10,2 C 10,7 C 10,8 C 91 % 84 % 1014,8 hPa 0,0 l/m 0,0 km/h (0 Bft) W-NW 295 0 min
14.04.2018 08:35 10,2 C 10,8 C 10,8 C 91 % 84 % 1014,8 hPa 0,0 l/m 0,0 km/h (0 Bft) W-NW 295 0 min
14.04.2018 08:40 10,2 C 10,9 C 10,8 C 91 % 84 % 1014,8 hPa 0,0 l/m 0,0 km/h (0 Bft) W-NW 295 0 min
14.04.2018 08:45 10,2 C 11,0 C 10,8 C 91 % 84 % 1014,8 hPa 0,0 l/m 0,0 km/h (0 Bft) W-NW 295 0 min
14.04.2018 08:50 10,2 C 11,1 C 10,8 C 91 % 85 % 1014,8 hPa 0,0 l/m 0,0 km/h (0 Bft) W-NW 295 0 min
14.04.2018 08:55 10,2 C 11,1 C 10,8 C 91 % 83 % 1014,8 hPa 0,0 l/m 0,0 km/h (0 Bft) W-NW 295 0 min
14.04.2018 09:00 10,2 C 11,2 C 10,8 C 91 % 83 % 1015,8 hPa 0,0 l/m 0,0 km/h (0 Bft) W-NW 295 0 min
14.04.2018 09:05 10,2 C 11,2 C 10,8 C 91 % 82 % 1015,8 hPa 0,0 l/m 0,0 km/h (0 Bft) W-NW 295 0 min
14.04.2018 09:10 10,2 C 11,3 C 10,8 C 91 % 82 % 1015,8 hPa 0,0 l/m 0,0 km/h (0 Bft) W-NW 295 0 min
14.04.2018 09:15 10,2 C 11,4 C 10,8 C 91 % 82 % 1014,8 hPa 0,0 l/m 0,0 km/h (0 Bft) W-NW 295 0 min
14.04.2018 09:20 10,2 C 11,4 C 10,8 C 91 % 83 % 1014,8 hPa 0,0 l/m 0,0 km/h (0 Bft) W-NW 295 0 min
14.04.2018 09:25 10,2 C 11,5 C 10,8 C 91 % 82 % 1014,8 hPa 0,0 l/m 0,0 km/h (0 Bft) W-NW 295 0 min
14.04.2018 09:30 10,2 C 11,5 C 10,8 C 91 % 82 % 1015,8 hPa 0,0 l/m 0,0 km/h (0 Bft) W-NW 295 0 min
14.04.2018 09:35 11,9 C 11,6 C 10,8 C 80 % 82 % 1015,8 hPa 0,0 l/m 4,8 km/h (1 Bft) N 355 0 min
14.04.2018 09:40 11,9 C 11,7 C 10,8 C 80 % 82 % 1015,8 hPa 0,0 l/m 4,8 km/h (1 Bft) N 355 0 min
14.04.2018 09:45 11,9 C 11,8 C 10,8 C 80 % 81 % 1015,8 hPa 0,0 l/m 4,8 km/h (1 Bft) N 355 0 min
14.04.2018 09:50 11,9 C 11,8 C 10,8 C 80 % 80 % 1015,8 hPa 0,0 l/m 4,8 km/h (1 Bft) N 355 0 min
14.04.2018 09:55 11,9 C 11,8 C 10,8 C 80 % 80 % 1015,8 hPa 0,0 l/m 4,8 km/h (1 Bft) N 355 0 min
14.04.2018 10:00 11,9 C 11,8 C 10,8 C 80 % 80 % 1014,8 hPa 0,0 l/m 4,8 km/h (1 Bft) N 355 0 min
14.04.2018 10:05 11,9 C 11,9 C 10,8 C 80 % 80 % 1014,8 hPa 0,0 l/m 4,8 km/h (1 Bft) N 355 0 min
14.04.2018 10:10 11,9 C 12,0 C 10,8 C 80 % 79 % 1014,8 hPa 0,0 l/m 4,8 km/h (1 Bft) N 355 0 min
14.04.2018 10:15 12,3 C 12,0 C 10,8 C 77 % 78 % 1015,8 hPa 0,0 l/m 5,4 km/h (2 Bft) N-NO 15 14 min
14.04.2018 10:20 12,3 C 12,1 C 10,8 C 77 % 79 % 1015,8 hPa 0,0 l/m 5,4 km/h (2 Bft) N-NO 15 0 min
14.04.2018 10:25 12,3 C 12,2 C 10,8 C 77 % 78 % 1015,8 hPa 0,0 l/m 5,4 km/h (2 Bft) N-NO 15 0 min
14.04.2018 10:30 12,3 C 12,5 C 10,8 C 77 % 77 % 1015,8 hPa 0,0 l/m 5,4 km/h (2 Bft) N-NO 15 0 min
14.04.2018 10:35 12,3 C 12,6 C 10,8 C 77 % 76 % 1015,8 hPa 0,0 l/m 5,4 km/h (2 Bft) N-NO 15 0 min
14.04.2018 10:40 12,3 C 12,6 C 10,8 C 77 % 77 % 1015,8 hPa 0,0 l/m 5,4 km/h (2 Bft) N-NO 15 0 min
14.04.2018 10:45 12,3 C 12,6 C 10,8 C 77 % 76 % 1015,8 hPa 0,0 l/m 5,4 km/h (2 Bft) N-NO 15 0 min
14.04.2018 10:50 12,3 C 12,7 C 10,8 C 77 % 77 % 1015,8 hPa 0,0 l/m 5,4 km/h (2 Bft) N-NO 15 0 min
14.04.2018 10:55 12,3 C 12,8 C 10,8 C 77 % 77 % 1015,8 hPa 0,0 l/m 5,4 km/h (2 Bft) N-NO 15 0 min
14.04.2018 11:00 13,2 C 12,8 C 10,8 C 74 % 77 % 1015,8 hPa 0,0 l/m 4,8 km/h (1 Bft) W-NW 290 39 min
14.04.2018 11:05 13,2 C 12,7 C 10,8 C 74 % 77 % 1015,8 hPa 0,0 l/m 4,8 km/h (1 Bft) W-NW 290 0 min
14.04.2018 11:10 13,2 C 12,7 C 10,8 C 74 % 77 % 1015,8 hPa 0,0 l/m 4,8 km/h (1 Bft) W-NW 290 0 min
14.04.2018 11:15 12,9 C 12,7 C 10,8 C 75 % 77 % 1015,8 hPa 0,0 l/m 6,1 km/h (2 Bft) W 280 13 min
14.04.2018 11:20 12,9 C 12,7 C 10,8 C 75 % 77 % 1015,8 hPa 0,0 l/m 6,1 km/h (2 Bft) W 280 0 min
14.04.2018 11:25 12,9 C 12,8 C 10,8 C 75 % 77 % 1015,8 hPa 0,0 l/m 6,1 km/h (2 Bft) W 280 0 min
14.04.2018 11:30 13,2 C 12,9 C 10,8 C 75 % 77 % 1015,8 hPa 0,0 l/m 9,1 km/h (2 Bft) O 85 18 min
14.04.2018 11:35 13,2 C 12,9 C 10,8 C 75 % 78 % 1015,8 hPa 0,0 l/m 9,1 km/h (2 Bft) O 85 0 min
14.04.2018 11:40 13,2 C 13,0 C 10,8 C 75 % 78 % 1015,8 hPa 0,0 l/m 9,1 km/h (2 Bft) O 85 0 min
14.04.2018 11:45 13,1 C 13,0 C 10,8 C 76 % 78 % 1015,8 hPa 0,0 l/m 5,4 km/h (2 Bft) W 265 12 min
14.04.2018 11:50 13,1 C 13,1 C 10,8 C 76 % 77 % 1015,8 hPa 0,0 l/m 5,4 km/h (2 Bft) W 265 0 min
14.04.2018 11:55 13,5 C 13,1 C 10,8 C 74 % 78 % 1015,8 hPa 0,0 l/m 6,1 km/h (2 Bft) W 280 11 min
14.04.2018 12:00 13,7 C 13,1 C 10,8 C 75 % 78 % 1015,8 hPa 0,0 l/m 8,5 km/h (2 Bft) W-NW 300 4 min
14.04.2018 12:05 13,7 C 13,2 C 10,8 C 74 % 77 % 1015,8 hPa 0,0 l/m 7,3 km/h (2 Bft) W 280 1 min
14.04.2018 12:10 13,7 C 13,3 C 10,8 C 74 % 77 % 1015,7 hPa 0,0 l/m 7,3 km/h (2 Bft) W 280 0 min
14.04.2018 12:15 13,8 C 13,3 C 10,8 C 75 % 77 % 1015,7 hPa 0,0 l/m 3,6 km/h (1 Bft) W-NW 295 9 min
14.04.2018 12:20 13,8 C 13,4 C 10,8 C 74 % 78 % 1015,7 hPa 0,0 l/m 9,1 km/h (2 Bft) NW 320 4 min
14.04.2018 12:25 13,8 C 13,6 C 10,8 C 74 % 77 % 1015,7 hPa 0,0 l/m 9,1 km/h (2 Bft) NW 320 0 min
14.04.2018 12:30 13,8 C 13,6 C 10,8 C 74 % 77 % 1015,7 hPa 0,0 l/m 9,1 km/h (2 Bft) NW 320 0 min
14.04.2018 12:35 13,8 C 13,7 C 10,8 C 74 % 77 % 1015,7 hPa 0,0 l/m 9,1 km/h (2 Bft) NW 320 0 min
14.04.2018 12:40 13,8 C 13,8 C 10,8 C 74 % 77 % 1015,7 hPa 0,0 l/m 9,1 km/h (2 Bft) NW 320 0 min
14.04.2018 12:45 13,8 C 14,1 C 10,8 C 74 % 75 % 1015,7 hPa 0,0 l/m 9,1 km/h (2 Bft) NW 320 0 min
14.04.2018 12:50 13,8 C 14,0 C 10,8 C 74 % 74 % 1015,7 hPa 0,0 l/m 9,1 km/h (2 Bft) NW 320 0 min
14.04.2018 12:55 13,8 C 14,0 C 10,8 C 74 % 75 % 1015,7 hPa 0,0 l/m 9,1 km/h (2 Bft) NW 320 0 min
14.04.2018 13:00 13,8 C 13,9 C 10,8 C 74 % 76 % 1015,7 hPa 0,0 l/m 9,1 km/h (2 Bft) NW 320 0 min
14.04.2018 13:05 13,8 C 14,0 C 10,8 C 74 % 76 % 1015,7 hPa 0,0 l/m 9,1 km/h (2 Bft) NW 320 0 min
14.04.2018 13:10 13,8 C 14,2 C 10,8 C 74 % 77 % 1015,7 hPa 0,0 l/m 9,1 km/h (2 Bft) NW 320 0 min
14.04.2018 13:15 13,8 C 14,6 C 10,8 C 74 % 76 % 1015,7 hPa 0,0 l/m 9,1 km/h (2 Bft) NW 320 0 min
14.04.2018 13:20 13,8 C 14,9 C 10,8 C 74 % 75 % 1015,7 hPa 0,0 l/m 9,1 km/h (2 Bft) NW 320 0 min
14.04.2018 13:25 13,8 C 15,1 C 10,8 C 74 % 74 % 1015,7 hPa 0,0 l/m 9,1 km/h (2 Bft) NW 320 0 min
14.04.2018 13:30 13,8 C 15,1 C 10,8 C 74 % 74 % 1015,7 hPa 0,0 l/m 9,1 km/h (2 Bft) NW 320 0 min
14.04.2018 13:35 13,8 C 15,1 C 10,8 C 74 % 73 % 1015,7 hPa 0,0 l/m 9,1 km/h (2 Bft) NW 320 0 min
14.04.2018 13:40 13,8 C 15,1 C 10,8 C 74 % 71 % 1015,7 hPa 0,0 l/m 9,1 km/h (2 Bft) NW 320 0 min
14.04.2018 13:45 15,2 C 14,9 C 10,8 C 69 % 71 % 1015,7 hPa 0,0 l/m 9,7 km/h (2 Bft) NW 305 0 min
14.04.2018 13:50 15,2 C 15,0 C 10,8 C 69 % 71 % 1015,7 hPa 0,0 l/m 9,7 km/h (2 Bft) NW 305 0 min
14.04.2018 13:55 15,2 C 15,4 C 10,8 C 69 % 73 % 1015,7 hPa 0,0 l/m 9,7 km/h (2 Bft) NW 305 0 min
14.04.2018 14:00 15,2 C 15,4 C 10,8 C 69 % 72 % 1015,7 hPa 0,0 l/m 9,7 km/h (2 Bft) NW 305 0 min
14.04.2018 14:05 15,2 C 15,5 C 10,8 C 69 % 71 % 1015,7 hPa 0,0 l/m 9,7 km/h (2 Bft) NW 305 0 min
14.04.2018 14:10 16,1 C 15,6 C 10,8 C 67 % 69 % 1015,7 hPa 0,0 l/m 6,7 km/h (2 Bft) W 280 20 min
14.04.2018 14:15 16,1 C 15,6 C 10,8 C 67 % 72 % 1016,7 hPa 0,0 l/m 6,7 km/h (2 Bft) W 280 0 min
14.04.2018 14:20 16,1 C 15,6 C 10,8 C 67 % 70 % 1016,7 hPa 0,0 l/m 6,7 km/h (2 Bft) W 280 0 min
14.04.2018 14:25 16,1 C 15,7 C 10,8 C 67 % 71 % 1016,7 hPa 0,0 l/m 6,7 km/h (2 Bft) W 280 0 min
14.04.2018 14:30 16,1 C 16,1 C 10,8 C 67 % 73 % 1015,7 hPa 0,0 l/m 6,7 km/h (2 Bft) W 280 0 min
14.04.2018 14:35 16,1 C 15,9 C 10,8 C 67 % 72 % 1015,7 hPa 0,0 l/m 6,7 km/h (2 Bft) W 280 0 min
14.04.2018 14:40 16,1 C 15,8 C 10,8 C 67 % 72 % 1015,7 hPa 0,0 l/m 6,7 km/h (2 Bft) W 280 0 min
14.04.2018 14:45 16,1 C 16,1 C 10,8 C 67 % 70 % 1015,7 hPa 0,0 l/m 6,7 km/h (2 Bft) W 280 0 min
14.04.2018 14:50 16,9 C 16,3 C 10,8 C 65 % 70 % 1015,7 hPa 0,0 l/m 7,3 km/h (2 Bft) N 5 33 min
14.04.2018 14:55 16,9 C 16,5 C 10,8 C 65 % 70 % 1015,7 hPa 0,0 l/m 7,3 km/h (2 Bft) N 5 0 min
14.04.2018 15:00 17,1 C 16,6 C 10,8 C 67 % 70 % 1016,7 hPa 0,0 l/m 20,0 km/h (4 Bft) NW 320 10 min
14.04.2018 15:05 17,2 C 16,6 C 10,8 C 66 % 69 % 1016,7 hPa 0,0 l/m 15,7 km/h (3 Bft) SW 230 5 min
14.04.2018 15:10 17,2 C 16,6 C 10,8 C 66 % 69 % 1016,7 hPa 0,0 l/m 15,7 km/h (3 Bft) SW 230 0 min
14.04.2018 15:15 17,2 C 16,6 C 10,8 C 66 % 71 % 1015,7 hPa 0,0 l/m 15,7 km/h (3 Bft) SW 230 0 min
14.04.2018 15:20 17,2 C 17,0 C 10,8 C 66 % 69 % 1015,7 hPa 0,0 l/m 15,7 km/h (3 Bft) SW 230 0 min
14.04.2018 15:25 17,2 C 17,3 C 10,8 C 66 % 66 % 1015,7 hPa 0,0 l/m 15,7 km/h (3 Bft) SW 230 0 min
14.04.2018 15:30 17,2 C 17,2 C 10,8 C 66 % 65 % 1015,7 hPa 0,0 l/m 15,7 km/h (3 Bft) SW 230 0 min
14.04.2018 15:35 17,2 C 17,2 C 10,8 C 66 % 69 % 1015,7 hPa 0,0 l/m 15,7 km/h (3 Bft) SW 230 0 min
14.04.2018 15:40 17,2 C 17,3 C 10,8 C 66 % 64 % 1015,7 hPa 0,0 l/m 15,7 km/h (3 Bft) SW 230 0 min
14.04.2018 15:45 17,2 C 17,4 C 10,8 C 66 % 65 % 1015,7 hPa 0,0 l/m 15,7 km/h (3 Bft) SW 230 0 min
14.04.2018 15:50 18,2 C 17,6 C 10,8 C 61 % 67 % 1015,7 hPa 0,0 l/m 13,9 km/h (3 Bft) NW 310 48 min
14.04.2018 15:55 18,2 C 17,6 C 10,8 C 61 % 66 % 1015,7 hPa 0,0 l/m 13,9 km/h (3 Bft) NW 310 0 min
14.04.2018 16:00 18,3 C 17,6 C 10,8 C 60 % 66 % 1015,7 hPa 0,0 l/m 16,9 km/h (3 Bft) SW 230 7 min
14.04.2018 16:05 18,3 C 17,7 C 10,8 C 60 % 67 % 1015,7 hPa 0,0 l/m 16,9 km/h (3 Bft) SW 230 0 min
14.04.2018 16:10 18,5 C 17,7 C 10,8 C 61 % 64 % 1015,7 hPa 0,0 l/m 6,7 km/h (2 Bft) NO 45 13 min
14.04.2018 16:15 18,8 C 17,9 C 10,8 C 58 % 63 % 1015,7 hPa 0,0 l/m 7,9 km/h (2 Bft) N-NW 345 5 min
14.04.2018 16:20 18,6 C 18,0 C 10,8 C 60 % 65 % 1015,7 hPa 0,0 l/m 10,3 km/h (2 Bft) NW 310 5 min
14.04.2018 16:25 18,4 C 17,9 C 10,8 C 58 % 63 % 1015,7 hPa 0,0 l/m 12,1 km/h (2 Bft) W-NW 295 3 min
14.04.2018 16:30 18,4 C 17,8 C 10,8 C 58 % 62 % 1014,7 hPa 0,0 l/m 12,1 km/h (2 Bft) W-NW 295 0 min
14.04.2018 16:35 18,2 C 17,7 C 10,8 C 58 % 63 % 1014,7 hPa 0,0 l/m 9,1 km/h (2 Bft) NW 320 13 min
14.04.2018 16:40 18,4 C 17,8 C 10,8 C 58 % 64 % 1014,7 hPa 0,0 l/m 7,9 km/h (2 Bft) W 265 5 min
14.04.2018 16:45 18,4 C 17,9 C 10,8 C 58 % 63 % 1014,7 hPa 0,0 l/m 5,4 km/h (2 Bft) W-NW 295 2 min
14.04.2018 16:50 18,5 C 17,8 C 10,8 C 57 % 63 % 1014,7 hPa 0,0 l/m 2,4 km/h (1 Bft) W-NW 290 7 min
14.04.2018 16:55 18,5 C 17,8 C 10,8 C 58 % 63 % 1014,7 hPa 0,0 l/m 6,1 km/h (2 Bft) NW 315 1 min
14.04.2018 17:00 18,5 C 17,8 C 10,8 C 58 % 63 % 1014,7 hPa 0,0 l/m 6,1 km/h (2 Bft) NW 315 0 min
14.04.2018 17:05 17,8 C 17,8 C 10,8 C 58 % 62 % 1014,7 hPa 0,0 l/m 13,3 km/h (3 Bft) N-NO 20 12 min
14.04.2018 17:10 17,6 C 17,9 C 10,8 C 58 % 61 % 1014,7 hPa 0,0 l/m 13,3 km/h (3 Bft) NO 40 3 min
14.04.2018 17:15 18,1 C 18,0 C 10,8 C 58 % 62 % 1014,7 hPa 0,0 l/m 6,1 km/h (2 Bft) W 280 7 min
14.04.2018 17:20 18,1 C 18,1 C 10,8 C 58 % 61 % 1014,7 hPa 0,0 l/m 4,2 km/h (1 Bft) N-NO 15 3 min
14.04.2018 17:25 18,2 C 18,0 C 10,8 C 58 % 60 % 1014,7 hPa 0,0 l/m 6,7 km/h (2 Bft) N-NO 20 6 min
14.04.2018 17:30 17,7 C 18,0 C 10,8 C 57 % 60 % 1014,7 hPa 0,0 l/m 8,5 km/h (2 Bft) NW 310 5 min
14.04.2018 17:35 18,1 C 18,0 C 10,8 C 57 % 60 % 1014,7 hPa 0,0 l/m 8,5 km/h (2 Bft) NW 315 5 min
14.04.2018 17:40 18,4 C 18,1 C 10,8 C 56 % 59 % 1014,7 hPa 0,0 l/m 8,5 km/h (2 Bft) NO 40 5 min
14.04.2018 17:45 18,1 C 18,2 C 10,8 C 56 % 60 % 1014,7 hPa 0,0 l/m 4,2 km/h (1 Bft) NW 310 2 min
14.04.2018 17:50 18,4 C 18,1 C 10,8 C 58 % 60 % 1014,7 hPa 0,0 l/m 6,1 km/h (2 Bft) W 265 2 min
14.04.2018 17:55 18,2 C 18,2 C 10,8 C 56 % 59 % 1014,7 hPa 0,0 l/m 6,7 km/h (2 Bft) N-NO 20 2 min
14.04.2018 18:00 18,4 C 18,1 C 10,8 C 57 % 60 % 1014,7 hPa 0,0 l/m 4,8 km/h (1 Bft) W 275 5 min
14.04.2018 18:05 18,5 C 18,1 C 10,8 C 56 % 60 % 1014,7 hPa 0,0 l/m 3,0 km/h (1 Bft) W 265 3 min
14.04.2018 18:10 18,5 C 18,1 C 10,8 C 55 % 61 % 1014,7 hPa 0,0 l/m 4,8 km/h (1 Bft) O-SO 110 3 min
14.04.2018 18:15 18,4 C 18,1 C 10,8 C 58 % 62 % 1014,7 hPa 0,0 l/m 6,7 km/h (2 Bft) W 260 5 min
14.04.2018 18:20 18,0 C 17,9 C 10,8 C 58 % 61 % 1014,7 hPa 0,0 l/m 6,7 km/h (2 Bft) NW 310 6 min
14.04.2018 18:25 18,2 C 17,9 C 10,8 C 57 % 60 % 1014,7 hPa 0,0 l/m 3,6 km/h (1 Bft) W-NW 285 3 min
14.04.2018 18:30 18,3 C 17,9 C 10,8 C 57 % 60 % 1015,7 hPa 0,0 l/m 3,6 km/h (1 Bft) N-NO 25 1 min
14.04.2018 18:35 18,2 C 17,8 C 10,8 C 57 % 60 % 1015,7 hPa 0,0 l/m 3,6 km/h (1 Bft) NO 50 4 min
14.04.2018 18:40 18,3 C 17,9 C 10,8 C 56 % 60 % 1015,7 hPa 0,0 l/m 3,6 km/h (1 Bft) N 10 3 min
14.04.2018 18:45 18,2 C 17,9 C 10,8 C 56 % 60 % 1014,7 hPa 0,0 l/m 7,3 km/h (2 Bft) N 0 0 min
14.04.2018 18:50 17,9 C 17,9 C 10,8 C 56 % 59 % 1014,7 hPa 0,0 l/m 3,0 km/h (1 Bft) NW 320 0 min
14.04.2018 18:55 17,8 C 17,8 C 10,8 C 57 % 61 % 1014,7 hPa 0,0 l/m 3,0 km/h (1 Bft) W 275 0 min
14.04.2018 19:00 17,7 C 17,7 C 10,8 C 59 % 62 % 1013,7 hPa 0,0 l/m 1,8 km/h (1 Bft) W-NW 290 0 min
14.04.2018 19:05 17,6 C 17,6 C 10,8 C 60 % 63 % 1013,7 hPa 0,0 l/m 1,8 km/h (1 Bft) NO 45 0 min
14.04.2018 19:10 17,5 C 17,6 C 10,8 C 60 % 63 % 1013,7 hPa 0,0 l/m 2,4 km/h (1 Bft) N-NW 345 0 min
14.04.2018 19:15 17,4 C 17,5 C 10,8 C 61 % 63 % 1014,7 hPa 0,0 l/m 2,4 km/h (1 Bft) NW 305 0 min
14.04.2018 19:20 17,2 C 17,4 C 10,8 C 61 % 64 % 1014,7 hPa 0,0 l/m 3,6 km/h (1 Bft) W 275 0 min
14.04.2018 19:25 17,2 C 17,3 C 10,8 C 62 % 65 % 1014,7 hPa 0,0 l/m 0,0 km/h (0 Bft) NW 310 0 min
14.04.2018 19:30 17,0 C 17,2 C 10,8 C 63 % 65 % 1014,7 hPa 0,0 l/m 2,4 km/h (1 Bft) NW 320 0 min
14.04.2018 19:35 17,0 C 17,1 C 10,8 C 63 % 65 % 1014,7 hPa 0,0 l/m 3,6 km/h (1 Bft) N-NW 335 0 min
14.04.2018 19:40 16,9 C 17,1 C 10,8 C 62 % 64 % 1014,7 hPa 0,0 l/m 3,6 km/h (1 Bft) N 10 0 min
14.04.2018 19:45 16,8 C 17,1 C 10,8 C 62 % 65 % 1013,7 hPa 0,0 l/m 2,4 km/h (1 Bft) N-NW 345 0 min
14.04.2018 19:50 16,8 C 17,0 C 10,8 C 62 % 65 % 1013,7 hPa 0,0 l/m 4,2 km/h (1 Bft) N-NO 25 0 min
14.04.2018 19:55 16,8 C 17,0 C 10,8 C 62 % 64 % 1013,7 hPa 0,0 l/m 3,0 km/h (1 Bft) N-NO 15 0 min
14.04.2018 20:00 16,8 C 17,0 C 10,8 C 62 % 65 % 1014,7 hPa 0,0 l/m 1,2 km/h (1 Bft) N-NO 15 0 min
14.04.2018 20:05 16,6 C 16,9 C 10,8 C 62 % 65 % 1014,7 hPa 0,0 l/m 4,2 km/h (1 Bft) N 5 0 min
14.04.2018 20:10 16,6 C 16,8 C 10,8 C 62 % 64 % 1014,7 hPa 0,0 l/m 3,6 km/h (1 Bft) NO 35 0 min
14.04.2018 20:15 16,6 C 16,8 C 10,8 C 63 % 65 % 1014,7 hPa 0,0 l/m 1,2 km/h (1 Bft) O-NO 70 0 min
14.04.2018 20:20 16,5 C 16,6 C 10,8 C 63 % 65 % 1014,7 hPa 0,0 l/m 0,6 km/h (0 Bft) O-SO 105 0 min
14.04.2018 20:25 16,5 C 16,6 C 10,8 C 63 % 65 % 1014,7 hPa 0,0 l/m 1,2 km/h (1 Bft) N 5 0 min
14.04.2018 20:30 16,5 C 16,6 C 10,8 C 63 % 65 % 1014,7 hPa 0,0 l/m 0,6 km/h (0 Bft) N-NW 330 0 min
14.04.2018 20:35 16,4 C 16,5 C 10,8 C 63 % 65 % 1014,7 hPa 0,0 l/m 0,0 km/h (0 Bft) N 10 0 min
14.04.2018 20:40 16,4 C 16,4 C 10,8 C 63 % 65 % 1014,7 hPa 0,0 l/m 0,0 km/h (0 Bft) N 0 0 min
14.04.2018 20:45 16,3 C 16,4 C 10,8 C 64 % 66 % 1014,7 hPa 0,0 l/m 0,0 km/h (0 Bft) W 260 0 min
14.04.2018 20:50 16,2 C 16,2 C 10,8 C 64 % 66 % 1014,7 hPa 0,0 l/m 0,0 km/h (0 Bft) W-SW 240 0 min
14.04.2018 20:55 16,1 C 16,1 C 10,8 C 65 % 67 % 1014,7 hPa 0,0 l/m 0,0 km/h (0 Bft) W 275 0 min
14.04.2018 21:00 16,0 C 16,1 C 10,8 C 65 % 67 % 1014,7 hPa 0,0 l/m 0,0 km/h (0 Bft) N 10 0 min
14.04.2018 21:05 16,1 C 16,0 C 10,8 C 65 % 67 % 1014,7 hPa 0,0 l/m 3,0 km/h (1 Bft) SO 130 0 min
14.04.2018 21:10 16,0 C 16,0 C 10,8 C 65 % 67 % 1014,7 hPa 0,0 l/m 2,4 km/h (1 Bft) NO 40 0 min
14.04.2018 21:15 16,0 C 16,0 C 10,8 C 65 % 67 % 1013,7 hPa 0,0 l/m 1,2 km/h (1 Bft) W-NW 295 0 min
14.04.2018 21:20 15,9 C 16,0 C 10,8 C 66 % 67 % 1013,7 hPa 0,0 l/m 0,6 km/h (0 Bft) N-NO 25 0 min
14.04.2018 21:25 15,9 C 16,0 C 10,8 C 66 % 67 % 1013,7 hPa 0,0 l/m 0,0 km/h (0 Bft) NO 45 0 min
14.04.2018 21:30 15,8 C 15,9 C 10,8 C 66 % 67 % 1014,7 hPa 0,0 l/m 1,8 km/h (1 Bft) O-SO 110 0 min
14.04.2018 21:35 15,8 C 15,9 C 10,8 C 66 % 67 % 1014,7 hPa 0,0 l/m 3,6 km/h (1 Bft) O 85 0 min
14.04.2018 21:40 15,7 C 15,8 C 10,8 C 66 % 67 % 1014,7 hPa 0,0 l/m 3,6 km/h (1 Bft) O-SO 115 0 min
14.04.2018 21:45 15,7 C 15,8 C 10,8 C 66 % 67 % 1014,7 hPa 0,0 l/m 0,6 km/h (0 Bft) NO 55 0 min
14.04.2018 21:50 15,6 C 15,7 C 10,8 C 67 % 67 % 1014,7 hPa 0,0 l/m 0,0 km/h (0 Bft) NO 50 0 min
14.04.2018 21:55 15,5 C 15,6 C 10,8 C 67 % 68 % 1014,7 hPa 0,0 l/m 2,4 km/h (1 Bft) S-SO 165 0 min
14.04.2018 22:00 15,4 C 15,5 C 10,8 C 67 % 68 % 1014,7 hPa 0,0 l/m 6,1 km/h (2 Bft) N-NW 340 0 min
14.04.2018 22:05 15,3 C 15,5 C 10,8 C 67 % 68 % 1014,7 hPa 0,0 l/m 3,6 km/h (1 Bft) NO 55 0 min
14.04.2018 22:10 15,3 C 15,4 C 10,8 C 67 % 68 % 1014,7 hPa 0,0 l/m 9,7 km/h (2 Bft) NO 45 0 min
14.04.2018 22:15 15,3 C 15,4 C 10,8 C 66 % 67 % 1013,7 hPa 0,0 l/m 13,9 km/h (3 Bft) O-NO 60 0 min
14.04.2018 22:20 15,3 C 15,4 C 10,8 C 67 % 67 % 1013,7 hPa 0,0 l/m 4,2 km/h (1 Bft) NO 45 0 min
14.04.2018 22:25 15,3 C 15,4 C 10,8 C 67 % 68 % 1013,7 hPa 0,0 l/m 7,3 km/h (2 Bft) N-NO 25 0 min
14.04.2018 22:30 15,3 C 15,4 C 10,8 C 67 % 68 % 1013,7 hPa 0,0 l/m 9,7 km/h (2 Bft) O 80 0 min
14.04.2018 22:35 15,4 C 15,4 C 10,8 C 66 % 67 % 1013,7 hPa 0,0 l/m 16,3 km/h (3 Bft) N 10 0 min
14.04.2018 22:40 15,4 C 15,4 C 10,8 C 65 % 66 % 1013,7 hPa 0,0 l/m 11,5 km/h (2 Bft) O-NO 60 0 min
14.04.2018 22:45 15,4 C 15,4 C 10,8 C 66 % 67 % 1013,7 hPa 0,0 l/m 12,1 km/h (2 Bft) SO 145 0 min
14.04.2018 22:50 15,3 C 15,4 C 10,8 C 66 % 67 % 1013,7 hPa 0,0 l/m 12,1 km/h (2 Bft) O 85 0 min
14.04.2018 22:55 15,3 C 15,4 C 10,8 C 66 % 67 % 1013,7 hPa 0,0 l/m 9,1 km/h (2 Bft) O-NO 75 0 min
14.04.2018 23:00 15,2 C 15,3 C 10,8 C 66 % 67 % 1014,7 hPa 0,0 l/m 9,1 km/h (2 Bft) O-NO 75 0 min
14.04.2018 23:05 15,1 C 15,2 C 10,8 C 66 % 67 % 1014,7 hPa 0,0 l/m 12,7 km/h (3 Bft) O-SO 120 0 min
14.04.2018 23:10 15,1 C 15,2 C 10,8 C 67 % 68 % 1014,7 hPa 0,0 l/m 10,3 km/h (2 Bft) NO 35 0 min
14.04.2018 23:15 15,0 C 15,1 C 10,8 C 67 % 68 % 1014,7 hPa 0,0 l/m 10,3 km/h (2 Bft) S 175 0 min
14.04.2018 23:20 15,0 C 15,0 C 10,8 C 67 % 68 % 1014,7 hPa 0,0 l/m 12,1 km/h (2 Bft) O-NO 70 0 min
14.04.2018 23:25 15,0 C 15,1 C 10,8 C 67 % 68 % 1014,7 hPa 0,0 l/m 11,5 km/h (2 Bft) SO 135 0 min
14.04.2018 23:30 14,9 C 15,0 C 10,8 C 67 % 68 % 1013,7 hPa 0,0 l/m 9,7 km/h (2 Bft) O 95 0 min
14.04.2018 23:35 14,9 C 15,0 C 10,8 C 68 % 68 % 1013,7 hPa 0,0 l/m 12,1 km/h (2 Bft) O 100 0 min
14.04.2018 23:40 14,9 C 15,0 C 10,8 C 68 % 68 % 1013,7 hPa 0,0 l/m 21,8 km/h (4 Bft) O-SO 120 0 min
14.04.2018 23:45 14,8 C 14,9 C 10,8 C 68 % 68 % 1014,7 hPa 0,0 l/m 16,3 km/h (3 Bft) O 80 0 min
14.04.2018 23:50 14,7 C 14,8 C 10,8 C 68 % 69 % 1014,7 hPa 0,0 l/m 14,5 km/h (3 Bft) O 80 0 min
14.04.2018 23:55 14,7 C 14,8 C 10,8 C 69 % 69 % 1014,7 hPa 0,0 l/m 12,1 km/h (2 Bft) O-NO 65 0 min
_ Min-Zeit 05:55 06:15 05:50 18:10 17:40 00:00 - 00:00 - - -
Minimum _ 10,1 C 10,2 C 10,5 C 55 % 59 % 1010,7 hPa - 0,0 km/h (0 Bft) - - -
_ Max-Zeit 16:15 17:45 00:00 06:00 05:50 14:15 00:00 23:40 - - 15:50
Maximum _ 18,8 C 18,2 C 12,4 C 92 % 90 % 1016,7 hPa 0,0 l/m 21,8 km/h
O-SO (4 Bft)
- - 48 min
Durchschnitt _ 13,7 C 13,8 C 11,0 C 76 % 76 % 1014,2 hPa #0,0 l/m 4,7 km/h (1 Bft) NW - #6:27 h